[[{"header":{"parameterUnit":"m.s-1","parameterCategory":1,"la1":30.2991,"la2":30.254,"lo1":-89.0895,"lo2":-89.0444,"dy":0.0017,"dx":0.0017,"nx":28,"ny":28,"refTime":"2025-06-20T09:00:00:Z","depth":0,"parameterNumber":2,"parameterNumberName":"U-component_of_WINDS"},"data":[0,0,0,0,0,0,0,0,0,0,0,0,0,0,0,0,0,0,0,0,0,0,0,0,0,0,0,0,0,0,0,0,0,0,0,0,0,0,0,0,0,0,0,0,0,0,0,0,0,0,0,0,0,0,0,0,0,0,0.2549,0.2548,0,0.2528,0.2528,0.2528,0.255,0.2551,0.2552,0.2553,0.2531,0.253,0.2529,0,0,0,0,0,0,0,0,0,0,0,0,0,0.2608,0.2607,0.2549,0.2548,0.2548,0.2528,0.2528,0.2527,0.255,0.2551,0.2552,0.2553,0.2532,0.253,0.2529,0,0,0,0,0,0,0,0,0,0,0,0,0,0.2584,0.2606,0.2549,0.2557,0.2558,0.2528,0.2528,0.2527,0.255,0.2551,0.2552,0.2554,0.2532,0.253,0.2528,0.249,0,0,0.2522,0.2521,0,0,0,0,0,0,0,0,0.2586,0.2582,0.2556,0.2556,0.2557,0.2543,0.2541,0.2515,0.255,0.2553,0.2553,0.2554,0.2534,0.2532,0.2525,0.2489,0.2488,0.2522,0.2521,0.252,0.2519,0,0,0,0,0,0,0,0.2587,0.2583,0.2541,0.2556,0.2556,0.2562,0.256,0.2536,0.2536,0.2553,0.2554,0.2551,0.2535,0.2527,0.2525,0.2487,0.2522,0.252,0.2519,0.2518,0.242,0.2418,0,0,0,0,0,0,0.2588,0.2584,0.2541,0.254,0.2575,0.256,0.2558,0.2546,0.2537,0.2537,0.255,0.2553,0.253,0.2527,0.2524,0.248,0.252,0.2518,0.2517,0.2421,0.2419,0.2418,0,0,0,0,0,0,0.2589,0.2584,0.2542,0.2562,0.2558,0.2557,0.2544,0.2545,0.2538,0.2535,0.2535,0.2543,0.2531,0.2527,0.2498,0.2479,0.2517,0.2515,0.2423,0.242,0.2418,0.239,0,0,0,0,0,0,0.2591,0.2584,0.2569,0.2562,0.2556,0.2516,0.2543,0.2544,0.2534,0.2537,0.2528,0.2528,0.2532,0.2501,0.2496,0.2477,0.2513,0.2424,0.2422,0.2419,0.2392,0.2387,0.2382,0,0,0,0,0,0.2593,0.2562,0.2568,0.2563,0.2538,0.2515,0.2512,0.2517,0.2532,0.2518,0.2516,0.2528,0.2482,0.2498,0.2493,0.2473,0.2426,0.2422,0.2419,0.2395,0.2388,0.2382,0,0,0,0,0,0,0.2566,0.2561,0.2568,0.2534,0.2525,0.2519,0.2501,0.251,0.2496,0.2499,0.2506,0.2504,0.2474,0.247,0.2489,0.2435,0.2456,0.2452,0.2439,0.2433,0.2428,0.243,0.2512,0,0,0,0,0,0.2557,0.2538,0.2534,0.2505,0.25,0.2501,0.2491,0.2496,0.2487,0.2483,0.248,0.247,0.2454,0.2443,0.2428,0.2391,0.2391,0.2375,0.237,0.2366,0.2362,0.2344,0.2338,0.2408,0.2408,0.2408,0,0,0.2536,0.2531,0.2519,0.2499,0.2493,0.2474,0.2497,0.2477,0.2463,0.248,0.2453,0.245,0.244,0.2408,0.2394,0.2404,0.2343,0.2362,0.2358,0.2357,0.234,0.2334,0.2328,0.2405,0.2406,0.2406,0,0,0.249,0.2483,0.2459,0.2452,0.2442,0.2443,0.2437,0.243,0.2429,0.2402,0.2414,0.2398,0.2369,0.2363,0.2355,0.2307,0.2318,0.2301,0.2275,0.2258,0.2252,0.2248,0.2232,0.2226,0.2298,0.2298,0.2298,0,0.2466,0.2439,0.2445,0.2423,0.2415,0.2429,0.2404,0.2397,0.2383,0.2377,0.2388,0.2354,0.2348,0.2315,0.2303,0.2296,0.229,0.2303,0.2253,0.2248,0.2243,0.2228,0.2222,0.2296,0.2296,0.2296,0.2296,0,0.2411,0.2391,0.2372,0.2359,0.2348,0.2325,0.2327,0.2316,0.2321,0.2321,0.2294,0.2288,0.2272,0.2264,0.227,0.2232,0.2239,0.2251,0.2273,0.2235,0.2221,0.2215,0.2293,0.2294,0.2294,0.2295,0,0,0.2348,0.2338,0.2331,0.2326,0.2316,0.2301,0.2279,0.2264,0.2254,0.2244,0.2226,0.2202,0.2213,0.2205,0.2209,0.2193,0.2158,0.2208,0.2208,0.22,0.2118,0.211,0.2103,0.2164,0.2163,0.2162,0.2119,0,0.2303,0.2265,0.227,0.2233,0.2217,0.223,0.2211,0.2203,0.2202,0.2188,0.2187,0.217,0.2186,0.2181,0.2166,0.2165,0.2141,0.2168,0.2149,0.2148,0.2152,0.2096,0.2087,0.2047,0.2114,0.2113,0.2112,0,0.2245,0.2234,0.2196,0.219,0.2183,0.2165,0.2153,0.2138,0.213,0.213,0.2121,0.2129,0.2107,0.2128,0.2099,0.2117,0.2109,0.2107,0.2106,0.2105,0.2129,0.2095,0.2034,0.2029,0.2103,0.2104,0.2105,0,0.2206,0.218,0.2154,0.2149,0.2141,0.2128,0.2124,0.2117,0.2108,0.2097,0.2091,0.2077,0.2069,0.2059,0.2062,0.2077,0.2033,0.2053,0.2034,0.2034,0.2025,0.2026,0.1963,0.2017,0.2017,0.2017,0.2018,0,0.2156,0.2133,0.2137,0.2121,0.2095,0.2101,0.2076,0.2073,0.2067,0.2052,0.2062,0.2047,0.2052,0.2038,0.204,0.2017,0.2013,0.2013,0.2014,0.2013,0.2013,0.2009,0.2013,0.2016,0.2016,0.2016,0.2017,0,0.2108,0.2109,0.2083,0.2077,0.2075,0.2057,0.2052,0.2038,0.2038,0.2018,0.2014,0.2014,0.1998,0.2,0.1982,0.1983,0.1954,0.1958,0.1958,0.1959,0.194,0.1942,0.1874,0.1866,0.1923,0.1923,0.1922,0,0.2077,0.2059,0.2052,0.2043,0.2038,0.2022,0.2013,0.2018,0.2008,0.1997,0.1985,0.1969,0.1957,0.1931,0.1929,0.1916,0.192,0.1897,0.1918,0.1918,0.1922,0.1923,0.1922,0.1893,0.1893,0.1892,0.1892,0,0.2022,0.2024,0.201,0.1997,0.1986,0.1976,0.1967,0.1959,0.1963,0.1951,0.1935,0.1926,0.1907,0.1892,0.1879,0.1876,0.1885,0.1885,0.188,0.1879,0.188,0.1881,0.1948,0.1887,0.1887,0.1888,0.1888,0.1888,0.1983,0.1968,0.1961,0.1946,0.194,0.1931,0.1918,0.1916,0.1903,0.1889,0.1892,0.1874,0.1866,0.185,0.1845,0.1831,0.184,0.1832,0.183,0.1829,0.1827,0.1881,0.1829,0.1829,0.1829,0.1829,0.1829,0,0.193,0.1926,0.1912,0.1899,0.1888,0.1897,0.1887,0.1877,0.1861,0.1853,0.1842,0.1823,0.1809,0.1806,0.1793,0.1782,0.1786,0.1779,0.178,0.178,0.182,0.1826,0.1776,0.1776,0.1776,0.1776,0.1776,0.1776,0.1901,0.1878,0.1879,0.1853,0.1849,0.1831,0.1825,0.1818,0.1812,0.1791,0.1779,0.1778,0.1772,0.1759,0.1746,0.1746,0.1741,0.1732,0.1734,0.1771,0.1777,0.1782,0.1788,0.1731,0.1731,0.1695,0.1695,0.1694]},{"header":{"parameterUnit":"m.s-1","parameterCategory":1,"la1":30.2991,"la2":30.254,"lo1":-89.0895,"lo2":-89.0444,"dy":0.0017,"dx":0.0017,"nx":28,"ny":28,"refTime":"2025-06-20T09:00:00:Z","depth":0,"parameterNumber":3,"parameterNumberName":"V-component_of_WINDS"},"data":[0,0,0,0,0,0,0,0,0,0,0,0,0,0,0,0,0,0,0,0,0,0,0,0,0,0,0,0,0,0,0,0,0,0,0,0,0,0,0,0,0,0,0,0,0,0,0,0,0,0,0,0,0,0,0,0,0,0,-0.3322,-0.3322,0,-0.3295,-0.3294,-0.3294,-0.3251,-0.325,-0.325,-0.3249,-0.3223,-0.3224,-0.3224,0,0,0,0,0,0,0,0,0,0,0,0,0,-0.3339,-0.3339,-0.3322,-0.3321,-0.3321,-0.3295,-0.3294,-0.3294,-0.3251,-0.325,-0.3249,-0.3249,-0.3223,-0.3224,-0.3224,0,0,0,0,0,0,0,0,0,0,0,0,0,-0.3324,-0.3339,-0.3322,-0.3297,-0.3294,-0.3295,-0.3294,-0.3294,-0.3252,-0.325,-0.3249,-0.3248,-0.3223,-0.3223,-0.3224,-0.3247,0,0,-0.3224,-0.3224,0,0,0,0,0,0,0,0,-0.3325,-0.3323,-0.3301,-0.3298,-0.3296,-0.3275,-0.3291,-0.3278,-0.3252,-0.3268,-0.3249,-0.3248,-0.3242,-0.324,-0.3238,-0.3246,-0.3245,-0.3224,-0.3224,-0.3224,-0.3224,0,0,0,0,0,0,0,-0.3326,-0.3324,-0.3311,-0.33,-0.3297,-0.3287,-0.3284,-0.3288,-0.3262,-0.3266,-0.3263,-0.326,-0.324,-0.3238,-0.3237,-0.3245,-0.3224,-0.3224,-0.3224,-0.3224,-0.327,-0.3272,0,0,0,0,0,0,-0.333,-0.3325,-0.3312,-0.331,-0.3307,-0.3288,-0.3284,-0.3283,-0.3262,-0.3257,-0.3261,-0.3259,-0.3238,-0.3237,-0.3236,-0.3262,-0.3224,-0.3224,-0.3224,-0.3269,-0.3271,-0.3272,0,0,0,0,0,0,-0.3331,-0.3329,-0.3313,-0.3317,-0.3314,-0.3289,-0.3288,-0.3283,-0.328,-0.3258,-0.3253,-0.3264,-0.3237,-0.3236,-0.3244,-0.326,-0.3224,-0.3224,-0.3268,-0.327,-0.3271,-0.3314,0,0,0,0,0,0,-0.3331,-0.333,-0.3338,-0.3317,-0.3314,-0.3322,-0.3289,-0.3283,-0.328,-0.3276,-0.3259,-0.3255,-0.3236,-0.3245,-0.3244,-0.326,-0.3224,-0.3266,-0.3269,-0.3271,-0.3311,-0.3317,-0.3323,0,0,0,0,0,-0.3332,-0.3352,-0.3339,-0.3338,-0.3324,-0.3323,-0.3321,-0.3299,-0.3282,-0.329,-0.3276,-0.3255,-0.3258,-0.3246,-0.3245,-0.3261,-0.3265,-0.3268,-0.3271,-0.3309,-0.3316,-0.3322,0,0,0,0,0,0,-0.3377,-0.3349,-0.3334,-0.3348,-0.3338,-0.3316,-0.3326,-0.3307,-0.3302,-0.3299,-0.3272,-0.3268,-0.3281,-0.3272,-0.3258,-0.3282,-0.3259,-0.3261,-0.3288,-0.3295,-0.33,-0.3302,-0.3224,0,0,0,0,0,-0.3388,-0.3389,-0.3365,-0.3379,-0.3375,-0.3351,-0.335,-0.3333,-0.3322,-0.3318,-0.3304,-0.3295,-0.3294,-0.3294,-0.3291,-0.331,-0.3305,-0.332,-0.3326,-0.333,-0.3333,-0.3342,-0.3349,-0.3281,-0.3281,-0.3281,0,0,-0.3412,-0.3396,-0.3399,-0.3388,-0.3378,-0.338,-0.3348,-0.3352,-0.3353,-0.3319,-0.3326,-0.3316,-0.3303,-0.3317,-0.3322,-0.331,-0.3351,-0.3334,-0.3338,-0.3338,-0.3346,-0.3352,-0.3358,-0.3283,-0.3282,-0.3282,0,0,-0.3455,-0.3444,-0.3454,-0.3445,-0.3431,-0.3415,-0.3417,-0.3398,-0.3389,-0.3395,-0.337,-0.3371,-0.337,-0.3362,-0.3358,-0.3398,-0.338,-0.3398,-0.3428,-0.3437,-0.3442,-0.3447,-0.3461,-0.3467,-0.3401,-0.3401,-0.3401,0,-0.3487,-0.3488,-0.3463,-0.3467,-0.3463,-0.3431,-0.3442,-0.3435,-0.3421,-0.3419,-0.3405,-0.3402,-0.3392,-0.3403,-0.3412,-0.341,-0.3413,-0.3401,-0.3443,-0.3448,-0.3451,-0.3465,-0.347,-0.3404,-0.3403,-0.3403,-0.3403,0,-0.3528,-0.3529,-0.3539,-0.3525,-0.3522,-0.353,-0.3506,-0.3506,-0.349,-0.3475,-0.3482,-0.3469,-0.3463,-0.3464,-0.3449,-0.3473,-0.3466,-0.3448,-0.3424,-0.3461,-0.3473,-0.3478,-0.3407,-0.3406,-0.3406,-0.3405,0,0,-0.36,-0.357,-0.3575,-0.3568,-0.3549,-0.355,-0.3556,-0.355,-0.355,-0.3541,-0.3546,-0.3546,-0.3528,-0.3524,-0.3507,-0.3515,-0.3548,-0.3496,-0.3495,-0.3506,-0.3574,-0.3588,-0.3594,-0.3535,-0.3536,-0.3536,-0.3575,0,-0.364,-0.3649,-0.3625,-0.364,-0.3641,-0.361,-0.3616,-0.3605,-0.3592,-0.3591,-0.3576,-0.3576,-0.3554,-0.3551,-0.3557,-0.3542,-0.3561,-0.3539,-0.354,-0.354,-0.3544,-0.36,-0.3615,-0.3653,-0.358,-0.358,-0.3581,0,-0.3689,-0.3681,-0.3696,-0.3675,-0.3675,-0.368,-0.3672,-0.3671,-0.3659,-0.3648,-0.3643,-0.3623,-0.3628,-0.3604,-0.3611,-0.3597,-0.3596,-0.3589,-0.3589,-0.3589,-0.3563,-0.3602,-0.3664,-0.367,-0.3588,-0.3588,-0.3587,0,-0.374,-0.3734,-0.3741,-0.3736,-0.3713,-0.3717,-0.3708,-0.3694,-0.3691,-0.3684,-0.3682,-0.3676,-0.3673,-0.3669,-0.3648,-0.3633,-0.3658,-0.3633,-0.365,-0.3651,-0.3657,-0.3657,-0.372,-0.3656,-0.3656,-0.3656,-0.3656,0,-0.3788,-0.3798,-0.3764,-0.3769,-0.3779,-0.3752,-0.3764,-0.3751,-0.3739,-0.3741,-0.3715,-0.3717,-0.3689,-0.3689,-0.3673,-0.3681,-0.368,-0.3672,-0.3668,-0.3675,-0.3676,-0.3674,-0.3671,-0.3657,-0.3657,-0.3657,-0.3657,0,-0.3848,-0.3825,-0.3831,-0.3808,-0.3802,-0.3811,-0.3791,-0.3795,-0.378,-0.3783,-0.3782,-0.3758,-0.3756,-0.3735,-0.3729,-0.3718,-0.3733,-0.3724,-0.3737,-0.3734,-0.3753,-0.3752,-0.3818,-0.3825,-0.3756,-0.3756,-0.3757,0,-0.388,-0.3887,-0.3864,-0.3863,-0.3854,-0.3853,-0.385,-0.3824,-0.3822,-0.3807,-0.3813,-0.3809,-0.3804,-0.3803,-0.3786,-0.3781,-0.3771,-0.3795,-0.3771,-0.3777,-0.3772,-0.3772,-0.3773,-0.38,-0.3801,-0.3802,-0.3802,0,-0.394,-0.3928,-0.3924,-0.3915,-0.3912,-0.3905,-0.3896,-0.3897,-0.3868,-0.3867,-0.3864,-0.3861,-0.3854,-0.385,-0.3842,-0.3833,-0.3813,-0.381,-0.3814,-0.3821,-0.3829,-0.3825,-0.3751,-0.3809,-0.3808,-0.3808,-0.3807,-0.3807,-0.3987,-0.3991,-0.3975,-0.3972,-0.3962,-0.3954,-0.3956,-0.394,-0.3937,-0.3929,-0.3914,-0.3913,-0.39,-0.3887,-0.388,-0.3879,-0.3868,-0.3873,-0.3875,-0.3877,-0.388,-0.3828,-0.3878,-0.3878,-0.3877,-0.3877,-0.3877,0,-0.4045,-0.4033,-0.403,-0.4017,-0.4015,-0.3995,-0.3983,-0.3983,-0.3982,-0.3971,-0.3967,-0.3964,-0.396,-0.3942,-0.3936,-0.394,-0.393,-0.3939,-0.3939,-0.3937,-0.3891,-0.3889,-0.3947,-0.3947,-0.3947,-0.3947,-0.3947,-0.3947,-0.4075,-0.4082,-0.4068,-0.4069,-0.4057,-0.4056,-0.4052,-0.4044,-0.4035,-0.4033,-0.4029,-0.4016,-0.4003,-0.3996,-0.3991,-0.3986,-0.3986,-0.3997,-0.3989,-0.3947,-0.394,-0.3934,-0.3931,-0.3997,-0.3997,-0.4035,-0.4035,-0.4036]}]]